Location: Gleizolles
(44.4833°N, 6.7667°E)
Time: 14:59:51
(UTC+00:00)

Vanguard 1 - Pass Details

Date: 27 June 2024
Orbit: 650 x 3826 km, 34.3° (Epoch: 22 July)

Event Time Altitude Azimuth Distance (km) Brightness Sun altitude
Rises 14:29:30 0° 264° (W) 3,719 13.7 48.9°
Reaches altitude 10° 14:33:35 10° 241° (WSW) 2,381 13.0 48.2°
Maximum altitude 14:36:25 15° 207° (SSW) 1,887 12.2 47.7°
Drops below altitude 10° 14:38:57 10° 173° (S) 2,074 11.9 47.3°
Sets 14:42:06 0° 147° (SSE) 2,948 12.4 46.7°
